{"data":{"norad_id":55489,"intl_designator":"2023-015AS","name":"STARLINK-5371","alt_names":[],"object_type":"PAYLOAD","status":"ACTIVE","operator":null,"country":"US","launch_date":"2023-02-02","launch_site_code":"AFETR","launch_vehicle":null,"mission":null,"orbit_class":"UNKNOWN","rcs_meters":null,"size_class":null,"mass_kg":null,"dimensions":null,"purposes":["comms"],"wikipedia_slug":null,"has_3d_model":false,"image_url":null,"decayed_at":null,"tle_current":{"epoch":"2026-09-20T20:43:44.841216Z","epoch_age_seconds":68729,"freshness":"FRESH","line1":"1 55489U 23015AS  26263.86371344  .00000190  00000+0  16431-4 0  9995","line2":"2 55489  43.0036 317.5790 0001306 290.0794  69.9917 15.27578265200441","mean_motion":15.27578265,"eccentricity":0.0001306,"inclination_deg":43.0036,"raan_deg":317.579,"arg_perigee_deg":290.0794,"mean_anomaly_deg":69.9917,"bstar":1.6431e-5,"rev_number":20044,"period_min":94.266855780381,"perigee_km":482.1582196761,"apogee_km":483.95036284137,"semimajor_km":6861.1912912587,"source":"CELESTRAK","updated_at":"2026-09-21T09:00:33.258392Z"}}}